SL-16 DEB, 23709

Orbit data source: Space-Track

SL-16 DEB, 23709 is space debris in LEO originally from a launch on Tue, 31 Oct 1995 UTC launched from the Tyuratam Missile And Space Complex (TTMTR). Debris objects in space refer to the collection of defunct objects orbiting the Earth. Examples of debris include non-operational satellites, rocket bodies, and fragments generated from explosions, collisions, or faulty payload assembly.

Loading next visibility...
Identifier
23709, 1995-058F
Orbit
LEO
Last TLE update
10 hours ago
Origin
Manufacturer
Yuzhnoe
Mission
Spacecraft
Bus & Motor
SEP MOTOR COVER, Unknown motor
Mass
~0 kg wet, ~1 kg dry
Launch date (UTC)
1995-10-31 (30 years ago)
Launch vehicle
Unknown
Launch site
Tyuratam Missile And Space Complex (TTMTR)
Object type
Payload
Rocket body
Debris
Shape & HBR
Unknown
Radar Cross Section
Small (<0.1 m²)

Expand to show TLE details & history

TLE from 10 hours ago
0 SL-16 DEB
1 23709U 95058F   25186.93914854  .00000006  00000-0  43709-4 0  9996
2 23709  71.0377  62.3024 0195812 126.4599 338.6882 13.74688901488147
Epoch: 2025-07-05T22:32Z
TLE epoch observation values (Epoch: 2025-07-05T22:32:22.433Z)
Latitude
66.50296°
Longitude
-71.78679°
Altitude
859.828 km
Speed
7.496 km/s
True Right ascension
12h 41m 54s
True Declination
66° 22' 43"
Sunlit
Object was in daylight at epoch
Visualization orbit readout
Latitude
-31.06833°
Longitude
147.35199°
Altitude
1,127.792 km
Speed
7.221 km/s
Apparent Right ascension
05h 24m 55s
Apparent Declination
-41° 15' 57"
Sunlit
Object is in daylight
Visualization observer readout
Local Sidereal Time
20:18:57
Azimuth
106.783° ESE
Elevation
-57.28°
Doppler factor
1
Orbital elements
Apogee altitude
1,124.841 km
Perigee altitude
836.649 km
Semi-major axis
7,358.882 km
Eccentricity
0.01958
Inclination
71.0377°
RAAN
62.3024°
Arg. of periapsis
126.4599°
True anomaly
Unknown
Mean anomaly
338.6882°
Eccentric anomaly
Unknown
Mean motion
3.43815 °/min
Orbital period
104.71 mins
BSTAR
0.000043709
Loading maneuver chart data...
Loading SW <> Apogee altitude chart data...
Loading historical data...
Loading historical data...
Loading historical data...
Loading historical data...
Loading historical data...
Loading historical data...
Loading historical data...

SL-16 DEB Visibility forecast

Observer location: undefined°, undefined°

Span
Click to sort rows by Start time (UTC) header in descending order
Start Az.
Max El. time (UTC)
Max El. Az.
Max El.
End time (UTC)
End Az.
8 mins2025-07-06 15:37:08.683Z139.558° SSE2025-07-06 15:41:08.683Z100.633° ESE17.217°2025-07-06 15:45:08.683Z59.393° ENE
10 mins2025-07-06 17:23:08.683Z214.792° SW2025-07-06 17:28:08.683Z314.582° NW42.56°2025-07-06 17:33:08.683Z16.846° NNE
9 mins2025-07-07 02:34:08.683Z345.916° N2025-07-07 02:38:08.683Z92.482° ESE42.553°2025-07-07 02:43:08.683Z148.699° SSE
|